Home > Weather > Indonesia > Ubud > Past weeks

Flag for Indonesia Weather past 2 weeks in Ubud, Bali, Indonesia

81 °F


Feels Like: 87 °F
Forecast: 78 / 91 °F
Wind: 2 mph from North

Location: Juanda International Airport

Current Time: Dec 2, 2015 at 8:34:21 AM

Latest Report: Dec 2, 2015 at 7:30 AM

Visibility: 2 mi

Pressure: 29.83 "Hg

Humidity: 89%

Dew point: 77 °F

Location of UbudLocation

Historic Weather in Ubud — Graph


Ubud temperature yesterday

Maximum temperature yesterday: 97 °F (at 3:00 PM)
Minimum temperature yesterday: 81 °F (at 4:00 AM)
Average temperature yesterday: 86 °F

Past Weeks' High & Low Weather Summary

High97 °F (Nov 24, 2:30 PM)100% (Nov 26, 7:30 AM)29.89 "Hg (Nov 26, 7:30 AM)
Low75 °F (Nov 27, 2:00 AM)32% (Nov 23, 1:30 PM)29.65 "Hg (Nov 25, 4:00 PM)
Average86 °F65%29.78 "Hg
* Reported Nov 17 7:00 AM — Dec 2 7:00 AM, Ubud, Weather by CustomWeather, © 2015

Note: Actual official high and low records may vary slightly from our data, if they occured in-between our weather recording intervals... More about our weather records


Ubud weather history for previous 24 hours

Time TempWeatherWind HumidityBarometerVisibility
7:00 AM
Wed, Dec 2
79 °FHaze.3 mph84%29.83 "Hg2 mi
6:00 AM79 °FHaze.3 mph84%29.80 "Hg2 mi
5:30 AM79 °FHaze.3 mph84%29.80 "Hg2 mi
5:00 AM79 °FHaze.5 mph84%29.80 "Hg2 mi
4:00 AM79 °FHaze.3 mph84%29.80 "Hg3 mi
3:30 AM79 °FHaze.5 mph84%29.80 "Hg3 mi
3:00 AM81 °FHaze.5 mph79%29.80 "Hg3 mi
2:30 AM79 °FHaze.5 mph79%29.80 "Hg3 mi
2:00 AM81 °FHaze.5 mph74%29.80 "Hg3 mi
1:30 AM81 °FPassing clouds.5 mph74%29.80 "Hg4 mi
1:00 AM79 °FPassing clouds.5 mph79%29.80 "Hg4 mi
12:30 AM81 °FPassing clouds.6 mph74%29.83 "Hg4 mi
12:00 AM81 °FPassing clouds.3 mph74%29.83 "Hg4 mi
11:30 PM
Tue, Dec 1
81 °FPassing clouds.5 mph74%29.83 "Hg4 mi
11:00 PM82 °FPassing clouds.8 mph74%29.86 "Hg4 mi
10:30 PM84 °FPassing clouds.7 mph70%29.83 "Hg4 mi
10:00 PM84 °FPassing clouds.7 mph70%29.83 "Hg4 mi
9:30 PM86 °FLight rain. Passing clouds.7 mph62%29.83 "Hg2 mi
9:00 PM86 °FPassing clouds.5 mph66%29.83 "Hg5 mi
8:30 PM88 °FPassing clouds.3 mph66%29.80 "Hg5 mi
8:00 PM88 °FPassing clouds.5 mph66%29.80 "Hg5 mi
7:30 PM88 °FPassing clouds.5 mph62%29.77 "Hg5 mi
7:00 PM88 °FPassing clouds.6 mph62%29.77 "Hg6 mi
6:30 PM88 °FPassing clouds.8 mph55%29.74 "HgN/A
6:00 PM90 °FPassing clouds.8 mph52%29.74 "HgN/A
5:30 PM90 °FScattered clouds.9 mph52%29.74 "HgN/A
5:00 PM90 °FScattered clouds.14 mph55%29.71 "HgN/A
4:30 PM93 °FScattered clouds.13 mph41%29.71 "HgN/A
4:00 PM93 °FScattered clouds.14 mph41%29.71 "HgN/A
3:30 PM95 °FScattered clouds.15 mph36%29.71 "HgN/A
3:00 PM97 °FScattered clouds.12 mph37%29.71 "HgN/A
2:30 PM95 °FPassing clouds.14 mph41%29.71 "HgN/A
2:00 PM95 °FPassing clouds.12 mph41%29.74 "HgN/A
11:30 AM93 °FPassing clouds.6 mph53%29.80 "HgN/A
11:00 AM90 °FPassing clouds.3 mph55%29.80 "Hg5 mi
10:30 AM93 °FPassing clouds.5 mph53%29.80 "Hg5 mi
10:00 AM90 °FPassing clouds.5 mph55%29.80 "Hg5 mi
9:00 AM82 °FPassing clouds.6 mph70%29.80 "Hg4 mi
8:30 AM88 °FHaze.5 mph66%29.80 "Hg3 mi
Weather by CustomWeather, © 2015

See weather overviewHow to use our weather pages